"startDT [UTC]","vpos","CH4 [ppm]","stdev(CH4) [ppm]","CO2 [ppm]","stdev(CO2) [ppm]","H2O_reported [%]","stdev(H2O_reported)","CavityPressure [torr]","CavityTemp [C]","OutletValve","CH4_dry [ppm]","CO2_dry [ppm]","DasTemp [C]","EtalonTemp [C]","WarmBoxTemp [C]","MPVPosition","T_ECpre [C]","T_EC1 [C]","T_EC2 [C]","p_inlet [hPa]","p_in [hPa]","p_out [hPa]","T_inlet [C]","RH_inlet [%]","dwpt_inlet [C]","T_vent [C]","RH_vent [%]","dwpt_vent [C]","flow_vent [l min-1]","flow_inlet [l min-1]","dwpt_sample [C]","T_room [C]"
2015-04-03 00:00:00,0.0,1.92701,0.00031,404.942,0.024,0.1060,0.0018,139.996,45.002,32482.55475,1.92903,405.459,34.855,45.067,45.000,0.00,0.09,-272.71,-272.78,5,685,-5,22.7,3.1,-24.4,23.0,3.2,-23.8,5.73,1.89,-14.9,28.3
2015-04-03 00:01:00,0.0,1.92690,0.00035,404.951,0.023,0.1052,0.0014,139.998,45.002,32487.28143,1.92891,405.463,34.962,45.067,45.000,0.00,0.09,-272.72,-272.77,3,685,-5,22.8,3.0,-24.6,23.0,3.2,-23.8,5.73,1.85,-14.9,28.3
2015-04-03 00:02:00,0.0,1.92728,0.00037,404.954,0.025,0.1046,0.0017,140.002,45.002,32491.16616,1.92925,405.464,35.064,45.067,45.000,0.00,0.09,-272.71,-272.77,5,685,-5,22.8,3.0,-24.5,23.0,3.2,-23.9,5.73,1.73,-14.9,28.3
2015-04-03 00:03:00,0.0,1.92723,0.00037,404.954,0.021,0.1041,0.0022,139.999,45.002,32493.87955,1.92921,405.462,35.165,45.067,45.000,0.00,0.09,-272.72,-272.76,3,685,-5,22.8,3.0,-24.5,23.0,3.2,-23.9,5.73,1.98,-15.0,28.3
2015-04-03 00:04:00,0.0,1.92708,0.00041,404.951,0.030,0.1051,0.0011,139.997,45.002,32498.11434,1.92908,405.463,35.244,45.067,45.000,0.00,0.09,-272.71,-272.77,5,685,-5,22.9,3.0,-24.4,23.0,3.2,-23.9,5.73,1.64,-14.9,28.4
2015-04-03 00:05:00,0.0,1.92679,0.00038,404.963,0.033,0.1030,0.0017,140.000,45.001,32502.93780,1.92878,405.466,35.310,45.067,45.000,0.00,0.09,-272.72,-272.78,3,685,-5,22.9,3.0,-24.6,23.1,3.2,-23.8,5.73,1.99,-14.9,28.4
2015-04-03 00:06:00,0.0,1.92674,0.00029,404.985,0.030,0.1020,0.0018,139.999,45.002,32505.55449,1.92868,405.483,35.379,45.067,45.000,0.00,0.09,-272.71,-272.76,5,685,-5,22.9,3.0,-24.7,23.0,3.1,-23.9,5.73,1.72,-14.9,28.4
2015-04-03 00:07:00,0.0,1.92652,0.00043,404.964,0.023,0.1011,0.0015,139.999,45.002,32511.16108,1.92845,405.457,35.453,45.067,45.000,0.00,0.09,-272.71,-272.77,4,685,-5,22.9,3.0,-24.7,23.1,3.2,-23.8,5.73,1.83,-14.9,28.4
2015-04-03 00:08:00,0.0,1.92633,0.00031,404.967,0.032,0.1003,0.0013,139.999,45.001,32514.78685,1.92822,405.456,35.529,45.068,45.001,0.00,0.09,-272.72,-272.78,4,684,-5,22.9,2.9,-24.9,23.1,3.1,-24.0,5.73,1.92,-14.9,28.5
2015-04-03 00:09:00,0.0,1.92652,0.00037,404.973,0.031,0.0990,0.0019,140.001,45.001,32515.00948,1.92841,405.456,35.603,45.068,45.001,0.00,0.09,-272.71,-272.78,4,685,-5,22.9,2.9,-25.0,23.1,3.1,-24.0,5.73,1.67,-14.9,28.5
2015-04-03 00:10:00,0.0,1.92656,0.00040,405.023,0.098,0.0991,0.0023,140.000,45.001,32518.53838,1.92845,405.504,35.664,45.068,45.001,0.00,0.09,-272.71,-272.77,4,684,-5,23.0,2.8,-25.1,23.2,3.1,-24.0,5.73,2.01,-14.9,28.6
2015-04-03 00:11:00,0.0,1.92655,0.00030,405.309,0.264,0.0988,0.0015,140.000,45.001,32521.75349,1.92842,405.775,35.745,45.068,45.001,0.00,0.09,-272.71,-272.78,4,684,-5,23.0,2.9,-25.0,23.2,3.1,-23.9,5.73,1.69,-14.9,28.6
2015-04-03 00:12:00,0.0,1.92676,0.00031,406.618,0.305,0.0984,0.0021,139.997,45.001,32523.91259,1.92860,407.085,35.815,45.068,45.001,0.00,0.09,-272.72,-272.78,3,684,-5,23.0,2.9,-25.0,23.2,3.1,-24.0,5.73,1.88,-14.9,28.6
2015-04-03 00:13:00,0.0,1.92688,0.00038,407.870,0.721,0.0995,0.0025,139.998,45.001,32524.78367,1.92875,408.321,35.901,45.067,45.001,0.00,0.09,-272.71,-272.77,5,684,-5,23.1,2.9,-24.9,23.3,3.1,-24.0,5.73,1.88,-14.9,28.7
2015-04-03 00:14:00,0.0,1.92665,0.00034,408.339,0.345,0.0989,0.0017,140.000,45.001,32527.39823,1.92856,408.836,35.976,45.067,45.000,0.00,0.09,-272.71,-272.77,3,684,-5,23.1,2.8,-25.2,23.2,3.1,-24.0,5.73,1.69,-14.9,28.7
2015-04-03 00:15:00,0.0,1.92679,0.00042,406.879,0.345,0.0975,0.0015,139.998,45.001,32530.97019,1.92862,407.387,36.042,45.067,45.000,0.00,0.09,-272.72,-272.77,5,684,-5,23.1,2.8,-25.2,23.2,3.1,-24.0,5.73,2.00,-14.9,28.7
2015-04-03 00:16:00,0.0,1.92700,0.00031,406.693,0.208,0.0972,0.0015,139.998,45.001,32530.67111,1.92885,407.174,36.071,45.067,45.000,0.00,0.09,-272.71,-272.77,3,684,-5,23.1,2.8,-25.3,23.3,3.1,-24.0,5.73,1.68,-14.9,28.8
2015-04-03 00:17:00,0.0,1.92678,0.00037,406.325,0.046,0.0977,0.0019,139.998,45.001,32532.43235,1.92867,406.805,36.122,45.067,45.000,0.00,0.09,-272.71,-272.77,5,684,-5,23.1,2.8,-25.2,23.3,3.1,-24.1,5.73,1.88,-14.9,28.8
2015-04-03 00:18:00,0.0,1.92689,0.00047,406.251,0.049,0.0966,0.0014,140.000,45.001,32535.12824,1.92868,406.725,36.190,45.067,45.001,0.00,0.09,-272.72,-272.77,3,684,-5,23.2,2.7,-25.4,23.3,3.1,-24.1,5.73,1.90,-14.9,28.8
2015-04-03 00:19:00,0.0,1.92646,0.00026,406.091,0.074,0.0969,0.0021,139.998,45.001,32536.65800,1.92833,406.568,36.247,45.067,45.001,0.00,0.09,-272.71,-272.77,4,684,-5,23.2,2.8,-25.2,23.3,3.0,-24.1,5.73,1.68,-14.9,28.9
2015-04-03 00:20:00,0.0,1.92662,0.00045,405.845,0.043,0.0975,0.0015,139.999,45.001,32538.96713,1.92847,406.325,36.307,45.067,45.000,0.00,0.09,-272.72,-272.77,4,684,-5,23.2,2.7,-25.3,23.3,3.0,-24.1,5.73,2.00,-14.9,28.9
2015-04-03 00:21:00,0.0,1.92679,0.00046,405.722,0.051,0.0975,0.0014,140.000,45.001,32538.22484,1.92865,406.202,36.338,45.067,45.000,0.00,0.09,-272.71,-272.77,4,683,-5,23.2,2.8,-25.3,23.4,3.0,-24.1,5.73,1.71,-14.9,29.0
2015-04-03 00:22:00,0.0,1.92675,0.00037,405.606,0.047,0.0969,0.0019,140.002,45.001,32539.58505,1.92855,406.081,36.369,45.067,45.000,0.00,0.09,-272.71,-272.78,4,683,-5,23.3,2.8,-25.2,23.4,3.0,-24.1,5.73,1.82,-14.9,29.0
2015-04-03 00:23:00,0.0,1.92667,0.00029,405.504,0.040,0.0972,0.0021,139.997,45.001,32539.63174,1.92856,405.980,36.377,45.067,45.000,0.00,0.09,-272.71,-272.77,3,683,-5,23.3,2.8,-25.2,23.4,3.0,-24.3,5.73,1.95,-14.8,29.0
2015-04-03 00:24:00,0.0,1.92674,0.00037,405.477,0.032,0.0980,0.0016,139.999,45.001,32541.03332,1.92856,405.955,36.400,45.067,45.001,0.00,0.09,-272.71,-272.77,4,683,-5,23.2,2.8,-25.2,23.4,3.0,-24.2,5.73,1.65,-14.8,29.0
2015-04-03 00:25:00,0.0,1.92695,0.00032,405.453,0.035,0.0983,0.0015,140.002,45.001,32541.82998,1.92881,405.932,36.398,45.068,45.001,0.00,0.09,-272.71,-272.78,3,683,-5,23.3,2.8,-25.1,23.5,3.0,-24.2,5.73,1.93,-14.8,29.1
2015-04-03 00:26:00,0.0,1.92701,0.00037,405.467,0.038,0.0988,0.0012,139.998,45.001,32540.21686,1.92888,405.949,36.433,45.068,45.001,0.00,0.09,-272.71,-272.77,4,683,-5,23.3,2.8,-25.1,23.5,3.0,-24.3,5.73,1.86,-14.8,29.2
2015-04-03 00:27:00,0.0,1.92697,0.00028,405.435,0.059,0.0995,0.0018,140.002,45.000,32543.83773,1.92887,405.921,36.444,45.068,45.001,0.00,0.09,-272.71,-272.77,3,683,-5,23.3,2.8,-25.1,23.5,3.0,-24.3,5.73,1.67,-14.8,29.1
2015-04-03 00:28:00,0.0,1.92692,0.00060,405.305,0.027,0.0999,0.0019,139.998,45.000,32546.52545,1.92883,405.794,36.438,45.067,45.001,0.00,0.09,-272.72,-272.78,3,683,-5,23.4,2.8,-25.0,23.5,3.0,-24.2,5.73,1.99,-14.8,29.1
2015-04-03 00:29:00,0.0,1.92695,0.00046,405.335,0.032,0.1011,0.0018,139.999,45.000,32545.21137,1.92887,405.828,36.394,45.067,45.000,0.00,0.09,-272.71,-272.77,4,684,-5,23.3,2.8,-24.9,23.5,3.0,-24.3,5.73,1.68,-14.8,29.2
2015-04-03 00:30:00,0.0,1.92698,0.00044,405.262,0.039,0.1010,0.0015,139.999,44.999,32542.68669,1.92893,405.755,36.327,45.066,44.999,0.00,0.09,-272.70,-272.77,4,684,-5,23.2,2.8,-25.0,23.4,3.0,-24.4,5.73,1.94,-14.8,29.1
2015-04-03 00:31:00,0.0,1.92699,0.00030,405.176,0.040,0.1002,0.0022,139.997,44.998,32540.14724,1.92883,405.668,36.221,45.065,44.998,0.00,0.09,-272.71,-272.77,3,685,-5,23.2,2.8,-25.0,23.4,2.9,-24.5,5.73,1.69,-14.8,29.1
2015-04-03 00:32:00,0.0,1.92717,0.00034,405.096,0.023,0.1013,0.0015,139.999,44.997,32534.95893,1.92911,405.590,36.089,45.064,44.998,0.00,0.09,-272.72,-272.77,4,685,-5,23.1,2.9,-24.8,23.3,3.0,-24.5,5.73,1.98,-14.8,29.0
2015-04-03 00:33:00,0.0,1.92707,0.00032,405.068,0.036,0.1011,0.0019,140.001,44.997,32530.58371,1.92900,405.563,35.925,45.064,44.998,0.00,0.09,-272.71,-272.77,3,686,-5,23.0,2.9,-24.8,23.3,2.9,-24.5,5.73,1.62,-14.8,28.9
2015-04-03 00:34:00,0.0,1.92712,0.00030,405.042,0.040,0.1011,0.0018,139.999,44.997,32525.17324,1.92904,405.534,35.729,45.064,44.998,0.00,0.09,-272.71,-272.77,4,686,-5,23.0,2.9,-24.9,23.2,2.9,-24.5,5.73,2.01,-14.8,28.8
2015-04-03 00:35:00,0.0,1.92705,0.00040,404.996,0.042,0.1009,0.0016,140.000,44.997,32520.64493,1.92894,405.489,35.496,45.065,44.998,0.00,0.09,-272.71,-272.77,4,687,-5,22.9,2.9,-24.9,23.2,3.0,-24.5,5.73,1.70,-14.8,28.7
2015-04-03 00:36:00,0.0,1.92719,0.00045,404.959,0.033,0.1009,0.0019,140.002,44.997,32513.19855,1.92916,405.451,35.256,45.065,44.999,0.00,0.09,-272.71,-272.77,3,687,-5,22.9,2.9,-25.0,23.1,3.0,-24.6,5.73,1.78,-14.8,28.6
2015-04-03 00:37:00,0.0,1.92709,0.00036,404.977,0.037,0.1011,0.0013,139.998,44.997,32505.40601,1.92900,405.470,35.045,45.066,45.000,0.00,0.09,-272.71,-272.77,4,688,-5,22.9,2.9,-25.0,23.1,3.0,-24.6,5.73,1.98,-14.8,28.5
2015-04-03 00:38:00,0.0,1.92723,0.00039,404.955,0.040,0.1004,0.0018,140.000,44.997,32498.14994,1.92910,405.444,34.907,45.066,45.000,0.00,0.09,-272.71,-272.78,5,688,-5,22.8,2.9,-25.0,23.0,3.0,-24.6,5.73,1.62,-14.8,28.5
2015-04-03 00:39:00,0.0,1.92716,0.00039,404.941,0.029,0.1002,0.0018,140.001,44.998,32494.09490,1.92907,405.429,34.792,45.067,45.000,0.00,0.09,-272.72,-272.77,3,688,-5,22.8,2.9,-25.1,23.0,3.0,-24.6,5.73,1.97,-14.8,28.4
2015-04-03 00:40:00,0.0,1.92702,0.00041,404.938,0.017,0.1002,0.0018,139.999,44.998,32490.65864,1.92895,405.428,34.690,45.067,45.000,0.00,0.09,-272.70,-272.77,4,688,-5,22.7,2.9,-25.1,23.0,3.0,-24.6,5.73,1.77,-14.9,28.4
2015-04-03 00:41:00,0.0,1.92704,0.00045,404.944,0.026,0.0997,0.0016,140.001,44.998,32486.29985,1.92892,405.430,34.575,45.066,44.999,0.00,0.09,-272.72,-272.77,4,688,-5,22.6,2.9,-25.1,22.9,3.0,-24.6,5.73,1.76,-14.9,28.2
2015-04-03 00:42:00,0.0,1.92681,0.00036,404.956,0.041,0.1001,0.0021,139.998,44.998,32483.15136,1.92871,405.445,34.442,45.066,44.999,0.00,0.09,-272.72,-272.78,3,688,-5,22.5,2.9,-25.1,22.8,3.0,-24.6,5.73,1.97,-14.9,28.1
2015-04-03 00:43:00,0.0,1.92720,0.00027,404.980,0.039,0.1003,0.0014,139.998,44.998,32476.55747,1.92910,405.469,34.333,45.066,44.999,0.00,0.09,-272.71,-272.77,5,688,-5,22.4,2.9,-25.1,22.7,3.0,-24.7,5.73,1.63,-14.9,28.0
2015-04-03 00:44:00,0.0,1.92716,0.00036,404.991,0.032,0.1014,0.0016,139.999,44.998,32473.34129,1.92910,405.484,34.253,45.066,44.999,0.00,0.09,-272.72,-272.77,4,688,-5,22.4,3.0,-24.9,22.6,3.0,-24.7,5.73,2.02,-14.9,27.9
2015-04-03 00:45:00,0.0,1.92716,0.00034,404.993,0.040,0.1019,0.0015,139.998,44.998,32471.18434,1.92908,405.491,34.183,45.066,44.999,0.00,0.09,-272.72,-272.78,4,688,-5,22.2,3.0,-25.1,22.6,3.0,-24.8,5.73,1.64,-14.9,27.8
2015-04-03 00:46:00,0.0,1.92733,0.00031,405.002,0.029,0.1019,0.0022,139.999,44.999,32468.27033,1.92925,405.497,34.102,45.065,44.998,0.00,0.09,-272.72,-272.77,6,688,-5,22.2,3.0,-25.0,22.5,3.0,-24.8,5.73,1.96,-14.9,27.8
2015-04-03 00:47:00,0.0,1.92701,0.00030,405.031,0.030,0.1023,0.0016,140.000,44.999,32467.77153,1.92895,405.530,34.038,45.066,44.999,0.00,0.09,-272.70,-272.77,4,688,-5,22.2,3.0,-24.9,22.5,3.0,-24.9,5.73,1.73,-14.9,27.8
2015-04-03 00:48:00,0.0,1.92707,0.00034,405.049,0.043,0.1044,0.0018,140.002,44.999,32466.09557,1.92906,405.557,33.997,45.066,44.999,0.00,0.09,-272.72,-272.77,5,688,-5,22.2,3.1,-24.6,22.5,3.0,-24.7,5.73,1.88,-15.0,27.8
2015-04-03 00:49:00,0.0,1.92712,0.00038,405.042,0.037,0.1051,0.0018,140.000,44.999,32464.40835,1.92913,405.556,33.967,45.066,44.999,0.00,0.09,-272.71,-272.78,4,688,-5,22.3,3.1,-24.5,22.6,3.0,-24.8,5.73,1.79,-15.0,27.7
2015-04-03 00:50:00,0.0,1.92688,0.00043,405.026,0.031,0.1072,0.0016,140.000,44.999,32467.65628,1.92889,405.549,33.944,45.067,45.000,0.00,0.09,-272.71,-272.77,4,688,-5,22.3,3.1,-24.5,22.6,3.0,-24.7,5.73,1.84,-15.0,27.8
2015-04-03 00:51:00,0.0,1.92688,0.00046,405.040,0.031,0.1073,0.0014,139.998,45.000,32466.25842,1.92897,405.565,33.964,45.067,45.000,0.00,0.09,-272.71,-272.78,5,688,-5,22.3,3.2,-24.3,22.6,3.0,-24.8,5.73,1.82,-15.0,27.7
2015-04-03 00:52:00,0.0,1.92673,0.00022,405.010,0.030,0.1088,0.0020,140.000,45.000,32469.21930,1.92878,405.541,33.997,45.068,45.000,0.00,0.09,-272.72,-272.78,4,688,-5,22.3,3.2,-24.2,22.6,3.0,-24.7,5.73,1.82,-15.0,27.8
2015-04-03 00:53:00,0.0,1.92673,0.00036,405.033,0.028,0.1086,0.0019,140.001,45.000,32469.44721,1.92879,405.563,34.000,45.067,45.000,0.00,0.09,-272.71,-272.77,6,688,-5,22.3,3.2,-24.2,22.6,3.0,-24.7,5.73,1.86,-15.0,27.8
2015-04-03 00:54:00,0.0,1.92728,0.00034,405.069,0.038,0.1075,0.0023,140.001,45.000,32465.78532,1.92932,405.591,34.003,45.067,45.000,0.00,0.09,-272.72,-272.77,4,688,-5,22.3,3.2,-24.2,22.6,3.0,-24.7,5.73,1.76,-15.0,27.8
2015-04-03 00:55:00,0.0,1.92686,0.00031,405.096,0.051,0.1074,0.0014,139.999,45.000,32467.35455,1.92891,405.622,34.000,45.067,44.999,0.00,0.09,-272.72,-272.78,5,688,-5,22.3,3.2,-24.2,22.6,3.0,-24.7,5.73,1.93,-15.0,27.8
2015-04-03 00:56:00,0.0,1.92664,0.00050,405.167,0.049,0.1076,0.0018,140.001,45.000,32468.49998,1.92868,405.690,33.995,45.066,44.999,0.00,0.09,-272.72,-272.77,5,688,-4,22.3,3.2,-24.2,22.6,3.1,-24.6,5.73,1.68,-15.0,27.8
2015-04-03 00:57:00,0.0,1.92641,0.00037,405.208,0.028,0.1081,0.0017,140.000,45.000,32469.54439,1.92848,405.734,33.954,45.066,44.999,0.00,0.09,-272.71,-272.76,4,688,-5,22.3,3.2,-24.3,22.6,3.0,-24.7,5.73,2.00,-15.0,27.8
2015-04-03 00:58:00,0.0,1.92671,0.00047,405.174,0.038,0.1083,0.0012,140.001,44.999,32468.18594,1.92873,405.704,33.937,45.066,44.999,0.00,0.09,-272.72,-272.77,6,688,-5,22.3,3.2,-24.2,22.6,3.1,-24.6,5.73,1.62,-15.1,27.8
2015-04-03 00:59:00,0.0,1.92684,0.00028,405.198,0.048,0.1084,0.0019,139.994,44.999,32463.43463,1.92891,405.726,33.918,45.066,44.999,0.00,0.09,-272.72,-272.78,4,688,-5,22.3,3.2,-24.2,22.5,3.1,-24.5,5.73,2.03,-15.1,27.7
2015-04-03 01:00:00,0.0,1.92666,0.00037,405.274,0.032,0.1095,0.0018,139.998,44.999,32465.04096,1.92875,405.809,33.878,45.066,44.999,0.00,0.09,-272.71,-272.77,5,688,-4,22.2,3.3,-24.0,22.5,3.1,-24.6,5.73,1.64,-15.1,27.8
2015-04-03 01:01:00,0.0,1.92686,0.00041,405.252,0.031,0.1107,0.0021,139.998,44.999,32463.61950,1.92896,405.792,33.841,45.067,44.999,0.00,0.09,-272.72,-272.77,5,687,-4,22.2,3.3,-24.0,22.5,3.1,-24.6,5.73,1.96,-15.0,27.7
2015-04-03 01:02:00,0.0,1.92683,0.00060,405.245,0.042,0.1095,0.0020,140.003,44.999,32463.71689,1.92892,405.779,33.812,45.067,44.999,0.00,0.09,-272.71,-272.78,4,688,-4,22.1,3.3,-24.2,22.4,3.1,-24.5,5.73,1.77,-15.1,27.7
2015-04-03 01:03:00,0.0,1.92652,0.00030,405.259,0.037,0.1086,0.0014,139.997,44.999,32462.46151,1.92860,405.789,33.771,45.067,44.999,0.00,0.09,-272.71,-272.77,6,688,-4,22.1,3.2,-24.3,22.4,3.1,-24.5,5.73,1.77,-15.1,27.6
2015-04-03 01:04:00,0.0,1.92679,0.00036,405.243,0.039,0.1070,0.0014,139.999,44.999,32461.87150,1.92878,405.767,33.715,45.067,45.000,0.00,0.09,-272.72,-272.77,5,688,-4,22.0,3.2,-24.4,22.3,3.1,-24.6,5.73,1.98,-15.1,27.6
2015-04-03 01:05:00,0.0,1.92700,0.00048,405.242,0.028,0.1063,0.0023,139.999,44.999,32459.47469,1.92902,405.760,33.650,45.067,44.999,0.00,0.09,-272.72,-272.78,4,688,-4,22.0,3.2,-24.5,22.3,3.1,-24.5,5.73,1.62,-15.1,27.5
2015-04-03 01:06:00,0.0,1.92694,0.00031,405.208,0.036,0.1059,0.0015,140.000,44.999,32461.04836,1.92896,405.724,33.589,45.067,45.000,0.00,0.09,-272.72,-272.78,6,688,-4,22.0,3.2,-24.5,22.3,3.1,-24.5,5.73,1.98,-15.1,27.4
2015-04-03 01:07:00,0.0,1.92701,0.00033,405.249,0.031,0.1047,0.0020,139.996,44.999,32455.93992,1.92899,405.761,33.568,45.067,45.000,0.00,0.09,-272.71,-272.77,5,689,-4,21.9,3.1,-24.7,22.3,3.2,-24.4,5.73,1.79,-15.1,27.4
2015-04-03 01:08:00,0.0,1.92714,0.00044,405.230,0.023,0.1027,0.0012,139.998,44.999,32454.81924,1.92913,405.730,33.559,45.067,45.000,0.00,0.09,-272.72,-272.78,4,689,-4,21.9,3.1,-24.9,22.2,3.2,-24.5,5.73,1.71,-15.1,27.3
2015-04-03 01:09:00,0.0,1.92706,0.00043,405.210,0.048,0.1017,0.0015,139.998,44.999,32451.92560,1.92895,405.708,33.506,45.067,45.000,0.00,0.09,-272.72,-272.78,6,689,-4,21.9,3.1,-24.9,22.2,3.2,-24.4,5.73,2.02,-15.1,27.3
2015-04-03 01:10:00,0.0,1.92709,0.00042,405.158,0.031,0.1012,0.0017,139.999,44.999,32451.91734,1.92899,405.653,33.457,45.067,45.000,0.00,0.09,-272.71,-272.78,5,689,-4,21.8,3.1,-25.1,22.1,3.2,-24.4,5.73,1.63,-15.1,27.2
2015-04-03 01:11:00,0.0,1.92762,0.00038,405.185,0.035,0.0997,0.0021,139.998,45.000,32448.29902,1.92952,405.672,33.413,45.067,45.000,0.00,0.09,-272.72,-272.77,4,689,-4,21.8,3.1,-25.1,22.1,3.2,-24.5,5.73,1.96,-15.1,27.2
2015-04-03 01:12:00,0.0,1.92728,0.00026,405.167,0.028,0.1004,0.0016,139.999,45.000,32450.08922,1.92921,405.655,33.376,45.067,45.000,0.00,0.09,-272.72,-272.78,6,689,-4,21.8,3.0,-25.1,22.1,3.2,-24.5,5.73,1.75,-15.1,27.2
2015-04-03 01:13:00,0.0,1.92737,0.00027,405.169,0.024,0.0995,0.0014,139.997,45.000,32447.26239,1.92923,405.656,33.375,45.068,45.000,0.00,0.09,-272.72,-272.77,4,688,-4,21.8,3.0,-25.2,22.1,3.2,-24.3,5.73,1.85,-15.2,27.2
2015-04-03 01:14:00,0.0,1.92728,0.00036,405.175,0.031,0.0988,0.0017,140.001,45.000,32450.07334,1.92919,405.657,33.375,45.068,45.000,0.00,0.09,-272.71,-272.77,5,689,-4,21.8,3.0,-25.2,22.1,3.2,-24.3,5.73,1.85,-15.2,27.2
2015-04-03 01:15:00,0.0,1.92730,0.00032,405.166,0.033,0.0980,0.0019,139.999,45.000,32450.90373,1.92913,405.644,33.383,45.068,45.001,0.00,0.09,-272.71,-272.78,6,688,-4,21.9,3.0,-25.3,22.2,3.2,-24.3,5.73,1.76,-15.2,27.2
2015-04-03 01:16:00,0.0,1.92753,0.00039,405.157,0.030,0.0975,0.0016,139.999,45.000,32449.22209,1.92940,405.632,33.436,45.068,45.001,0.00,0.09,-272.72,-272.78,4,688,-4,21.9,3.0,-25.3,22.2,3.2,-24.4,5.73,1.93,-15.2,27.2
2015-04-03 01:17:00,0.0,1.92726,0.00034,405.156,0.041,0.0975,0.0013,139.997,45.000,32450.84541,1.92910,405.634,33.479,45.068,45.001,0.00,0.09,-272.71,-272.77,6,688,-4,22.0,3.0,-25.3,22.2,3.2,-24.4,5.73,1.71,-15.2,27.3
2015-04-03 01:18:00,0.0,1.92688,0.00042,405.096,0.033,0.0976,0.0020,139.999,45.001,32456.27210,1.92874,405.570,33.499,45.069,45.001,0.00,0.09,-272.72,-272.78,4,688,-4,22.0,3.0,-25.3,22.2,3.2,-24.3,5.73,1.96,-15.2,27.3
2015-04-03 01:19:00,0.0,1.92715,0.00031,405.079,0.041,0.0976,0.0016,140.001,45.001,32456.99742,1.92902,405.558,33.535,45.068,45.001,0.00,0.09,-272.72,-272.78,6,688,-4,22.0,3.0,-25.2,22.3,3.2,-24.3,5.73,1.67,-15.2,27.3
2015-04-03 01:20:00,0.0,1.92717,0.00041,405.081,0.036,0.0957,0.0021,139.998,45.001,32457.78743,1.92900,405.549,33.562,45.068,45.000,0.00,0.09,-272.72,-272.77,5,688,-4,22.0,2.9,-25.4,22.3,3.2,-24.4,5.73,2.00,-15.2,27.3
2015-04-03 01:21:00,0.0,1.92690,0.00035,405.074,0.030,0.0937,0.0024,140.001,45.000,32458.06980,1.92868,405.530,33.574,45.068,45.000,0.00,0.09,-272.72,-272.77,5,688,-4,22.0,2.9,-25.6,22.3,3.2,-24.4,5.73,1.63,-15.2,27.3
2015-04-03 01:22:00,0.0,1.92698,0.00034,405.077,0.032,0.0940,0.0015,139.999,45.000,32456.46444,1.92873,405.535,33.599,45.067,45.000,0.00,0.09,-272.73,-272.78,6,688,-4,22.0,2.8,-25.7,22.3,3.2,-24.4,5.73,2.03,-15.2,27.4
2015-04-03 01:23:00,0.0,1.92724,0.00037,405.062,0.035,0.0928,0.0014,140.001,45.000,32457.66730,1.92899,405.514,33.597,45.067,44.999,0.00,0.09,-272.72,-272.78,4,688,-4,22.0,2.8,-25.9,22.2,3.2,-24.5,5.73,1.64,-15.2,27.3
2015-04-03 01:24:00,0.0,1.92735,0.00034,405.052,0.042,0.0915,0.0009,140.001,45.000,32457.57128,1.92908,405.501,33.571,45.067,44.999,0.00,0.09,-272.72,-272.77,5,688,-4,21.9,2.8,-26.0,22.2,3.2,-24.5,5.73,1.97,-15.2,27.3
2015-04-03 01:25:00,0.0,1.92723,0.00051,405.017,0.037,0.0897,0.0018,140.000,45.000,32456.69554,1.92897,405.455,33.563,45.067,44.999,0.00,0.09,-272.72,-272.78,6,688,-4,21.9,2.7,-26.3,22.1,3.1,-24.5,5.73,1.78,-15.2,27.3
2015-04-03 01:26:00,0.0,1.92711,0.00038,404.967,0.037,0.0877,0.0016,139.999,44.999,32457.09088,1.92877,405.395,33.534,45.067,44.999,0.00,0.09,-272.72,-272.78,4,688,-4,21.8,2.6,-26.7,22.1,3.1,-24.6,5.73,1.76,-15.2,27.4
2015-04-03 01:27:00,0.0,1.92739,0.00035,404.934,0.047,0.0832,0.0017,140.001,44.999,32454.75902,1.92898,405.341,33.496,45.067,44.999,0.00,0.09,-272.72,-272.78,6,689,-4,21.8,2.6,-27.0,22.1,3.1,-24.6,5.73,2.00,-15.2,27.4
2015-04-03 01:28:00,0.0,1.92739,0.00040,404.942,0.032,0.0819,0.0018,139.999,44.999,32452.82778,1.92893,405.340,33.470,45.067,44.999,0.00,0.09,-272.71,-272.77,5,689,-4,21.8,2.5,-27.2,22.1,3.1,-24.7,5.73,1.63,-15.2,27.2
2015-04-03 01:29:00,0.0,1.92724,0.00030,404.891,0.031,0.0807,0.0017,139.998,44.999,32451.26261,1.92876,405.285,33.436,45.067,45.000,0.00,0.09,-272.72,-272.78,4,689,-4,21.9,2.5,-27.3,22.1,3.1,-24.7,5.73,1.97,-15.2,27.1
2015-04-03 01:30:00,0.0,1.92769,0.00029,404.899,0.028,0.0815,0.0021,139.999,44.999,32448.95978,1.92925,405.294,33.393,45.067,45.000,0.00,0.09,-272.72,-272.77,6,689,-4,21.8,2.5,-27.3,22.1,3.1,-24.7,5.73,1.80,-15.2,27.2
2015-04-03 01:31:00,0.0,1.92750,0.00039,404.881,0.040,0.0814,0.0014,140.002,44.999,32450.88971,1.92901,405.279,33.336,45.068,45.000,0.00,0.09,-272.72,-272.77,6,689,-4,21.8,2.5,-27.2,22.0,3.1,-24.8,5.73,1.74,-15.2,27.1
2015-04-03 01:32:00,0.0,1.92742,0.00041,404.879,0.037,0.0809,0.0021,139.999,44.999,32449.83484,1.92897,405.273,33.312,45.068,45.000,0.00,0.09,-272.72,-272.78,4,689,-4,21.8,2.5,-27.2,22.0,3.1,-24.9,5.73,2.01,-15.2,27.0
2015-04-03 01:33:00,0.0,1.92750,0.00040,404.868,0.033,0.0813,0.0019,139.999,44.999,32448.79827,1.92904,405.263,33.301,45.068,45.000,0.00,0.09,-272.72,-272.77,6,689,-4,21.7,2.5,-27.2,22.0,3.1,-24.9,5.73,1.63,-15.3,27.0
2015-04-03 01:34:00,0.0,1.92757,0.00025,404.874,0.031,0.0819,0.0015,140.000,44.999,32448.17707,1.92914,405.272,33.263,45.068,45.000,0.00,0.09,-272.72,-272.77,4,689,-5,21.7,2.5,-27.2,21.9,3.1,-25.0,5.73,1.99,-15.2,26.9
2015-04-03 01:35:00,0.0,1.92743,0.00031,404.878,0.029,0.0813,0.0017,140.000,44.999,32447.71564,1.92896,405.274,33.249,45.067,45.000,0.00,0.09,-272.72,-272.78,5,689,-4,21.7,2.5,-27.2,21.9,3.0,-25.0,5.73,1.74,-15.2,26.9
2015-04-03 01:36:00,0.0,1.92759,0.00025,404.879,0.037,0.0815,0.0016,139.998,45.000,32447.68076,1.92915,405.276,33.249,45.067,45.000,0.00,0.09,-272.73,-272.78,7,689,-3,21.6,2.5,-27.2,21.9,3.0,-25.1,5.73,1.84,-15.3,26.9
2015-04-03 01:37:00,0.0,1.92752,0.00037,404.882,0.034,0.0820,0.0018,139.997,45.000,32446.94767,1.92909,405.281,33.232,45.067,45.000,0.00,0.09,-272.71,-272.77,5,689,-4,21.6,2.6,-27.2,21.9,3.0,-25.2,5.73,1.88,-15.3,26.9
2015-04-03 01:38:00,0.0,1.92737,0.00037,404.882,0.032,0.0834,0.0028,140.001,45.000,32447.12567,1.92894,405.290,33.197,45.067,45.000,0.00,0.09,-272.72,-272.77,6,689,-3,21.6,2.6,-27.0,21.9,3.0,-25.3,5.73,1.73,-15.3,26.9
2015-04-03 01:39:00,0.0,1.92788,0.00026,404.922,0.041,0.0842,0.0015,139.997,45.000,32442.45006,1.92946,405.330,33.190,45.068,45.000,0.00,0.09,-272.73,-272.78,6,689,-4,21.6,2.6,-26.9,21.8,3.0,-25.3,5.73,1.98,-15.3,26.9
2015-04-03 01:40:00,0.0,1.92733,0.00060,404.936,0.039,0.0850,0.0018,140.000,45.000,32446.42349,1.92898,405.348,33.198,45.068,45.000,0.00,0.09,-272.72,-272.78,5,690,-3,21.6,2.6,-26.8,21.9,3.0,-25.4,5.73,1.66,-15.3,26.9
2015-04-03 01:41:00,0.0,1.92715,0.00037,404.933,0.039,0.0864,0.0016,140.001,45.000,32444.84183,1.92879,405.357,33.257,45.068,45.001,0.00,0.09,-272.72,-272.77,7,686,-5,21.7,2.7,-26.6,21.9,2.9,-25.5,5.73,2.01,-15.3,26.9
2015-04-03 01:42:00,0.0,1.92732,0.00042,404.920,0.048,0.0866,0.0013,139.999,45.000,32446.04193,1.92897,405.342,33.313,45.069,45.001,0.00,0.09,-272.72,-272.77,9,689,1,21.7,2.7,-26.4,21.9,2.9,-25.5,5.73,1.65,-15.3,27.0
2015-04-03 01:43:00,0.0,1.92713,0.00049,404.921,0.040,0.0867,0.0019,140.003,45.001,32449.75197,1.92876,405.342,33.338,45.069,45.001,0.00,0.09,-272.72,-272.78,2,690,-9,21.8,2.7,-26.5,22.0,2.9,-25.5,5.73,2.02,-15.3,27.0
2015-04-03 01:44:00,0.0,1.92709,0.00034,404.903,0.032,0.0861,0.0017,139.998,45.001,32450.17697,1.92871,405.324,33.375,45.069,45.001,0.00,0.09,-272.71,-272.77,7,692,-3,21.8,2.7,-26.5,22.0,2.9,-25.5,5.73,1.64,-15.3,27.1
2015-04-03 01:45:00,0.0,1.92723,0.00039,404.924,0.039,0.0867,0.0018,140.000,45.001,32451.14192,1.92891,405.347,33.408,45.068,45.001,0.00,0.09,-272.72,-272.77,5,693,-4,21.9,2.7,-26.5,22.0,2.9,-25.5,5.73,2.03,-15.3,27.0
2015-04-03 01:46:00,0.0,1.92673,0.00038,404.902,0.030,0.0863,0.0013,140.000,45.001,32453.93440,1.92835,405.322,33.438,45.068,45.000,0.00,0.09,-272.72,-272.78,6,689,-3,21.8,2.7,-26.5,22.0,2.9,-25.6,5.73,1.63,-15.3,27.1